This is the latest recevied weather packets stored in our database for station/object N0ZRD-10. If no packets are shown the sender has not sent any weather packets the latest 10 day(s).
| Time | Temp. | Humidity | Pressure | Rain* | Wind** | Luminosity | Snow |
|---|---|---|---|---|---|---|---|
| 1777735791 | 11.11° C | 28% | - | 0 mm | - | - | - |
| 1777735190 | 11.11° C | 28% | - | 0 mm | - | - | - |
| 1777733988 | 10° C | 31% | - | 0 mm | - | - | - |
| 1777733387 | 9.44° C | 28% | - | 0 mm | - | - | - |
| 1777732785 | 9.44° C | 30% | - | 0 mm | - | - | - |
| 1777732184 | 8.89° C | 31% | - | 0 mm | - | - | - |
| 1777731583 | 8.89° C | 33% | - | 0 mm | - | - | - |
| 1777730982 | 7.78° C | 38% | - | 0 mm | - | - | - |
| 1777730381 | 7.22° C | 40% | - | 0 mm | - | - | - |
| 1777729780 | 7.22° C | 43% | - | 0 mm | - | - | - |
| 1777729179 | 6.67° C | 44% | - | 0 mm | - | - | - |
| 1777728579 | 5.56° C | 44% | - | 0 mm | - | - | - |
| 1777727977 | 5° C | 46% | - | 0 mm | - | - | - |
| 1777726848 | 3.89° C | 55% | - | 0 mm | - | - | - |
| 1777726776 | 3.89° C | 55% | - | 0 mm | - | - | - |
| 1777725573 | 2.78° C | 61% | - | 0 mm | - | - | - |
| 1777724973 | 1.67° C | 64% | - | 0 mm | - | - | - |
| 1777724371 | 1.11° C | 77% | - | 0 mm | - | - | - |
| 1777723770 | 0° C | 79% | - | 0 mm | - | - | - |
| 1777723169 | -0.56° C | 82% | - | 0 mm | - | - | - |
| 1777722568 | -1.11° C | 82% | - | 0 mm | - | - | - |
| 1777721967 | -1.67° C | 81% | - | 0 mm | - | - | - |
| 1777721366 | -1.67° C | 82% | - | 0 mm | - | - | - |
| 1777720837 | -2.22° C | 82% | - | 0 mm | - | - | - |
| 1777720796 | -2.22° C | 82% | - | 0 mm | - | - | - |
* Rain latest hour (hover to see other rain measurements)
** Current wind speed in m/s (hover to see current wind gust speed)